Location: *
(42.0175°N, 9.4056°E)
Time: 13:13:00
(UTC+00:00)

FREGAT/IRIS - Pass Details

Date: 25 August 2019
Orbit: 349 x 352 km, 97.0° (Epoch: 23 September)

Event Time Altitude Azimuth Distance (km) Brightness Sun altitude
Rises 18:58:24 0° 181° (S) 2,151 6.1 -9.6°
Reaches altitude 10° 19:00:22 10° 189° (S) 1,313 5.1 -10.0°
Maximum altitude 19:03:01 40° 261° (W) 532 3.8 -10.4°
Drops below altitude 10° 19:05:42 10° 334° (NNW) 1,324 6.1 -10.9°
Sets 19:07:42 0° 342° (NNW) 2,172 7.1 -11.2°
